MARCOS FERNÁNDEZ LOGRÓ SU PRIMERA «POLE» EN EL TURISMO NACIONAL

Marcos Fernández. Crédito: Prensa APAT.

El Campeonato Argentino de Turismo Nacional arrancó este sábado con la actividad de la primera fecha de la temporada 2021 en el Autódromo Ezequiel Crisol de Bahía Blanca, donde se desarrollaron entrenamientos y clasificación para ambas divisiones. Entre los pilotos de San Luis se destaca Marcos Fernández, que logró su primera clasificación en la Clase 2, luego de 122 carreras en la división.

Marcos y Sergio Fernández salieron a clasificar en el segundo grupo de la división menor y Marcos logró, en la primera vuelta rápida, el mejor tiempo de clasificación, con otro registro similar en la vuelta siguiente, que marcó la buena performance del puntano con el Nissan March.

Sergio Fernández, en tanto, consiguió ubicarse en el puesto 29 al final de la clasifica y ahora espera por la actividad del domingo, donde buscará ir hacia adelante en su serie.

Sergio Fernández. Crédito: Prensa APAT.

Fabricio Pezzini (Toyota Corolla) se posicionó sexto en la clasificación de la Clase 3, que quedó para el mendocino Julián Santero (Toyota Corolla). Por su parte, El villamercedino Javier Merlo (Toyota Corolla), completó la actividad del sábado décimo sexto.

 

Fabricio Pezzini. Crédito: Prensa APAT.
Javier Merlo. Crédito: Prensa APAT.
GENERAL CLASIFICACIÓN C2
Puesto Nro Piloto Marca Vtas Tiempo Dif.
1 22 MARCOS FERNANDEZ NISSAN MARCH 4 1:18.305
2 199 JUAN I. TORRES CHEVROLET CORSA 5 1:18.363 0.058
3 50 MAXIMILIANO FONTANA VW TREND 6 1:18.368 0.063
4 89 RENZO BLOTTA TOYOTA ETIOS 7 1:18.376 0.071
5 8 SEBASTIAN PEREZ CHEVROLET ONIX 7 1:18.458 0.153
6 4 LUCAS TEDESCHI TOYOTA ETIOS 7 1:18.544 0.239
7 61 FACUNDO BUSTOS VW TREND 6 1:18.576 0.271
8 84 LUCAS YEROBI FIESTA KINETIC 6 1:18.606 0.301
9 56 GASTON GRASSO TOYOTA ETIOS 7 1:18.616 0.311
10 3 GERONIMO NUNEZ TOYOTA ETIOS 6 1:18.619 0.314
11 10 ALEJO BORGIANI VW TREND 5 1:18.653 0.348
12 19 LUCIANO GONZALEZ FIESTA KINETIC 5 1:18.668 0.363
13 127 JOSE BAILONE RENAULT CLIO 4 1:18.704 0.399
14 23 DAMIAN KIRSTEIN PEUGEOT 208 5 1:18.744 0.439
15 79 MARCO VERONESI TOYOTA ETIOS 7 1:18.755 0.450
16 113 CHRISTIAN BODRATO MIONETT TOYOTA ETIOS 5 1:18.788 0.483
17 15 MIGUEL CIAURRO VW TREND 6 1:18.807 0.502
18 100 MAURO SALVI TOYOTA ETIOS 5 1:18.816 0.511
19 39 LEANDRO VALLASCIANI VW TREND 6 1:18.976 0.671
20 2 EMANUEL ABDALA FIESTA KINETIC 7 1:19.019 0.714
21 21 FERNANDO GOMEZ FREDES NISSAN MARCH 7 1:19.019 0.714
22 7 FACUNDO LEANEZ TOYOTA ETIOS 7 1:19.066 0.761
23 12 MAXIMILIANO BESTANI FIESTA KINETIC 6 1:19.117 0.812
24 14 IGNACIO PROCACITTO VW TREND 7 1:19.156 0.851
25 16 DIEGO LEANEZ TOYOTA ETIOS 7 1:19.165 0.860
26 9 CHRISTIAN ABDALA TOYOTA ETIOS 7 1:19.248 0.943
27 28 MATEO NUNEZ NISSAN MARCH 7 1:19.314 1.009
28 35 SERGIO FERNANDEZ NISSAN MARCH 4 1:19.416 1.111
29 151 DIEGO CHEVALLEY TOYOTA ETIOS 8 1:19.422 1.117
30 154 FACUNDO ROTONDO FIESTA KINETIC 6 1:19.432 1.127
31 36 SANDRO ABDALA RENAULT CLIO 6 1:19.481 1.176
32 26 AGUSTIN BONOMO DS3 7 1:19.509 1.204
33 37 GABRIEL SCORDIA FIAT ARGO 7 1:19.784 1.479
34 121 NAZARENO BEGUIRISTAIN FIAT ARGO 5 1:19.886 1.581
35 48 RICARDO SALE FIESTA KINETIC 6 1:19.974 1.669
36 55 MARCELO GUEVARA NISSAN MARCH 7 1:20.061 1.756
37 98 ALEX CONCI FIESTA KINETIC 5 1:21.149 2.844
GENERAL CLASIFICACIÓN C3
Puesto Nro Piloto Marca Vtas Tiempo Dif.
1 68 JULIAN SANTERO TOYOTA COROLLA 4 1:15.674
2 3 FACUNDO CHAPUR FORD FOCUS 6 1:16.119 0.445
3 118 ANTONINO GARCIA FORD FOCUS 6 1:16.183 0.509
4 12 LEONEL PERNIA FORD FOCUS 6 1:16.335 0.661
5 155 GASTON IANSA TOYOTA COROLLA 6 1:16.356 0.682
6 14 FABRICIO PEZZINI TOYOTA COROLLA 6 1:16.378 0.704
7 8 ALFONSO DOMENECH TOYOTA COROLLA 2 1:16.392 0.718
8 4 MATIAS MUNOZ MARCHESI FORD FOCUS 6 1:16.424 0.750
9 33 MATIAS MENVIELLE CHEVROLET CRUZE 3 1:16.450 0.776
10 55 MANUEL MALLO CHEVROLET CRUZE 6 1:16.450 0.776
11 1 JOSE M. URCERA HONDA CIVIC 5 1:16.492 0.818
12 7 LEONEL LARRAURI HONDA CIVIC 6 1:16.665 0.991
13 11 JERONIMO TETI CHEVROLET CRUZE 6 1:16.689 1.015
14 13 MARIANO PERNIA VW VENTO 6 1:16.799 1.125
15 56 GERMAN TODINO TOYOTA COROLLA 7 1:16.813 1.139
16 63 CARLOS JAVIER MERLO TOYOTA COROLLA 7 1:16.825 1.151
17 21 FACUNDO CONTA FORD FOCUS 7 1:16.933 1.259
18 16 JONATAN CASTELLANO CHEVROLET CRUZE 7 1:16.940 1.266
19 40 SEBASTIAN GOMEZ CHEVROLET CRUZE 6 1:17.007 1.333
20 114 EVER FRANETOVICH FORD FOCUS 6 1:17.014 1.340
21 9 LEANDRO CARDUCCI FORD FOCUS 7 1:17.033 1.359
22 121 NICOLAS POSCO FORD FOCUS 4 1:17.120 1.446
23 44 Mariano WERNER C4 LOUNGE 5 1:17.140 1.466
24 66 ADRIAN PERCAZ FORD FOCUS 7 1:17.254 1.580
25 69 MARTIN CHIALVO FORD FOCUS 6 1:17.255 1.581
26 137 JUAN JOSE GARRIZ C4 LOUNGE 6 1:17.260 1.586
27 110 FABIAN YANNANTUONI FIAT TIPO 8 1:17.269 1.595
28 50 DAMIAN MARKEL FORD FOCUS 7 1:17.350 1.676
29 109 LUCAS VICINO FIAT TIPO 7 1:17.370 1.696
30 38 JUAN P. ROSSOTTI VW VENTO 6 1:17.774 2.100
31 57 JUAN P. PASTORI TOYOTA COROLLA 4 1:18.290 2.616
32 82 MAURICIO LAMBIRIS VW VENTO 7 1:18.925 3.251
33 41 MAURO SCHENONE CHEVROLET CRUZE 5 1:19.355 3.681
34 70 DANIEL STAMBUL FORD FOCUS 6 1:19.985 4.311
35 95 PABLO OTERO NISSAN SENTRA 6 1:20.112 4.438
36 111 JOEL GASSMAN CHEVROLET CRUZE 2 1:32.578 16.904

El cronograma del domingo arrancará con las series, que se pondrán en marcha desde las 09 horas. Las finales, en tanto, arrancarán a las 12, con televisación de la TV Pública de 11 a 14:30.


Nota: Ruedas y Motores.